Regional Weather Roundup
Issued by NWS

Home | Current Version | Previous Version | Text Only | Print | Product List | Glossary Off
Versions: 1 2 3 4 5 6 7 8 9 10 11 12 13 14 15 16 17 18 19 20 21 22 23 24 25 26 27 28 29 30 31 32 33 34 35 36 37 38 39 40 41 42 43 44 45 46 47 48 49 50

000
ASUS43 KOAX 250310
RWRNE

WEATHER ROUNDUP FOR NEBRASKA
NATIONAL WEATHER SERVICE OMAHA NE
1000 PM CDT THU MAY 24 2018

NOTES: SATELLITE DATA IS BEING USED TO AUGMENT CLOUD COVER ABOVE
       12000 FEET.
       "FAIR" INDICATES FEW OR NO CLOUDS BELOW 12,000 FEET WITH NO
       SIGNIFICANT WEATHER AND/OR OBSTRUCTIONS TO VISIBILITY.


NEZ001>004-019>022-054>056-250400-
NEBRASKA PANHANDLE

CITY           SKY/WX    TMP DP  RH WIND       PRES   REMARKS
SCOTTSBLUFF    CLEAR     70  53  54 CALM      29.99R
ALLIANCE       CLEAR     64  54  69 S3        29.98R
CHADRON        CLEAR     66  58  75 S5        29.93S
GORDON         FAIR      65  56  74 CALM      29.96R
KIMBALL        PTCLDY    61  49  66 SW6       30.07S
SIDNEY         CLEAR     61  54  77 S6        30.04R
$$

NEZ057>060-069>072-079>082-250400-
SOUTHWEST NEBRASKA

CITY           SKY/WX    TMP DP  RH WIND       PRES   REMARKS
NORTH PLATTE   PTCLDY    68  63  84 CALM      29.93F
IMPERIAL       PTCLDY    69  60  73 SE8       29.96F
LEXINGTON      LGT RAIN  74  64  71 SE8       29.92S
MCCOOK         MOCLDY    73  61  65 S7        29.93R
OGALLALA       PTCLDY    68  55  62 CALM      29.97R
$$

NEZ005>010-023>029-035>040-094-250400-
NORTH CENTRAL NEBRASKA

CITY           SKY/WX    TMP DP  RH WIND       PRES   REMARKS
VALENTINE      PTCLDY    73  59  61 CALM      29.91R
AINSWORTH      CLOUDY    70  63  78 SE6       29.94S
BROKEN BOW     CLEAR     76  63  64 S7        29.92S
O`NEILL        CLEAR     74  65  74 CALM      29.91R
ORD            PTCLDY    73  62  68 S5        29.90R
THEDFORD       CLEAR     72  64  75 S7        29.94S
$$

NEZ041-046>049-061>064-073>077-083>087-250400-
SOUTH CENTRAL NEBRASKA

CITY           SKY/WX    TMP DP  RH WIND       PRES   REMARKS
GRAND ISLAND   CLEAR     75  59  57 S10       29.92R
AURORA         CLEAR     76  58  53 S10       29.92R
HASTINGS       CLOUDY    76  56  49 S8        29.93R
HEBRON         CLEAR     74  63  66 S6        29.93S
HOLDREGE       MOCLDY    74  63  68 S9        29.92S
KEARNEY        MOCLDY    74  60  61 SE9       29.92S
YORK           CLEAR     75  63  64 S10       29.92S
$$

NEZ011>018-030>034-042>045-250400-
NORTHEAST NEBRASKA

CITY           SKY/WX    TMP DP  RH WIND       PRES   REMARKS
NORFOLK        CLOUDY    78  56  46 S9        29.89R
ALBION         CLEAR     73  59  62 CALM      29.91R
BLAIR          MOCLDY    80  67  62 S15       29.92R
COLUMBUS       MOCLDY    79  59  50 S8        29.90S
FREMONT        PTCLDY    80  64  57 SE8       29.90F
TEKAMAH        PTCLDY    74  65  73 SE8       29.89S
WAYNE          CLEAR     72  61  68 S6        29.90R
$$

NEZ050>053-065>068-078-088>093-250400-
SOUTHEAST NEBRASKA

CITY           SKY/WX    TMP DP  RH WIND       PRES   REMARKS
LINCOLN        CLEAR     77  62  59 S10       29.91R
OMAHA EPPLEY   MOCLDY    81  64  56 S18       29.91R
BEATRICE       CLOUDY    76  64  65 S8        29.94S
FALLS CITY     MOCLDY    72  63  73 S6        29.95R
NEBRASKA CITY  MOCLDY    74  65  73 S9        29.95R
PLATTSMOUTH    CLOUDY    76  65  66 S9        29.94R
$$

NEZ044-045-051>053-067-250400-
OMAHA AREA

CITY           SKY/WX    TMP DP  RH WIND       PRES   REMARKS
OMAHA EPPLEY   MOCLDY    81  64  56 S18       29.91R
BLAIR          MOCLDY    80  67  62 S15       29.92R
FREMONT        PTCLDY    80  64  57 SE8       29.90F
MILLARD        PTCLDY    81  68  64 S10       29.92R
OFFUTT AFB     MOCLDY    77  65  65 SE10      29.92R
PLATTSMOUTH    CLOUDY    76  65  66 S9        29.94R
WAHOO          FAIR      79  60  50 S9        29.91R
$$




USA.gov is the U.S. government's official web portal to all federal, state and local government web resources and services.